Weather reports worldwide

Advertisment
Coningsby, United Kingdom (3391): temperature & dewpoint: 25.10.2020 04:00:00 - 31.10.2020 04:00:00 (GMT)Coningsby, United Kingdom (3391): temperature -20cm & temperature -100cm: 25.10.2020 04:00:00 - 31.10.2020 04:00:00 (GMT)Coningsby, United Kingdom (3391): wind speed & gusts: 25.10.2020 04:00:00 - 31.10.2020 04:00:00 (GMT)Coningsby, United Kingdom (3391): wind direction: 25.10.2020 04:00:00 - 31.10.2020 04:00:00 (GMT)Coningsby, United Kingdom (3391): reduced air pressure: 25.10.2020 04:00:00 - 31.10.2020 04:00:00 (GMT)Coningsby, United Kingdom (3391): visibility: 25.10.2020 04:00:00 - 31.10.2020 04:00:00 (GMT)Coningsby, United Kingdom (3391): precipitation: 25.10.2020 04:00:00 - 31.10.2020 04:00:00 (GMT)
Date & Time tt [°C] td [°C] tt -20cm [°C] tt -100cm [°C] ff [km/h] ff [kn] fx [km/h] fx [kn] dd ppp [hPa] vv [km] rr [mm]
31.10.2020 04:00:00 14,1 12,9 - - 22 12 - - S 1013,1 10 0,0
31.10.2020 03:00:00 14,0 13,2 - - 18 10 - - S 1013,8 10 0,0
31.10.2020 02:00:00 13,8 13,4 - - 18 10 - - S 1014,9 4,0 0,0
31.10.2020 01:00:00 12,9 12,7 - - 11 6 - - SSE 1015,6 2,0 0,0
31.10.2020 00:00:00 12,0 11,2 - - 11 6 - - E 1016,7 10 0,0
30.10.2020 23:00:00 11,2 10,3 - - 11 6 - - ESE 1017,0 10 0,0
30.10.2020 22:00:00 10,2 9,2 - - 5 3 - - ESE 1017,6 35 0,0
30.10.2020 21:00:00 11,0 9,1 - - 5 3 - - ENE 1018,0 10 0,0
30.10.2020 20:00:00 11,8 10,1 - - 4 2 - - NW 1018,0 10 0,0
30.10.2020 19:00:00 12,1 11,1 - - 8 4 - - WNW 1017,5 35 0,0
30.10.2020 18:00:00 11,9 11,1 - - 5 3 - - WSW 1016,7 10 0,0
30.10.2020 17:00:00 13,4 11,7 - - 4 2 - - WNW 1015,6 40 0,0
30.10.2020 16:00:00 14,4 12,5 - - 9 5 - - NW 1015,2 10 0,0
30.10.2020 15:00:00 15,0 12,5 - - 16 9 - - NW 1014,2 10 0,0
30.10.2020 14:00:00 16,3 13,5 - - 22 12 - - SW 1013,1 10 0,0
30.10.2020 13:00:00 16,3 13,3 - - 24 13 - - SW 1012,3 40 0,0
30.10.2020 12:00:00 16,5 13,4 - - 28 15 - - SW 1012,1 10 0,0
30.10.2020 11:00:00 16,6 13,3 - - 28 15 - - SW 1011,6 10 0,0
30.10.2020 10:00:00 16,1 13,4 - - 24 13 - - SW 1011,3 40 0,0
30.10.2020 09:00:00 14,9 12,8 9,7 12,0 21 11 - - SSW 1011,0 10 0,0
30.10.2020 08:00:00 14,9 12,6 - - 24 13 - - SSW 1010,2 10 0,0
30.10.2020 07:00:00 14,9 12,5 - - 28 15 - - SW 1009,3 10 0,0
30.10.2020 06:00:00 14,9 12,4 - - 29 16 - - SW 1008,8 10 0,0
30.10.2020 05:00:00 14,8 12,3 - - 29 16 46 25 SW 1008,4 10 0,0
30.10.2020 04:00:00 14,8 12,2 - - 29 16 - - SW 1008,2 10 0,0
30.10.2020 03:00:00 14,7 12,0 - - 31 17 48 26 SW 1007,7 55 0,0
30.10.2020 02:00:00 14,7 11,9 - - 28 15 - - SSW 1007,7 10 0,0
30.10.2020 01:00:00 14,6 11,7 - - 29 16 - - SW 1007,6 10 0,0
30.10.2020 00:00:00 14,4 11,7 - - 28 15 - - SW 1007,4 10 0,0
29.10.2020 23:00:00 14,4 11,7 - - 29 16 - - SW 1007,6 10 0,0
29.10.2020 22:00:00 14,3 11,8 - - 28 15 - - SW 1007,2 10 0,0
29.10.2020 21:00:00 14,1 11,8 - - 26 14 - - SW 1007,2 10 0,0
29.10.2020 20:00:00 13,8 11,6 - - 21 11 - - SSW 1007,3 40 0,0
29.10.2020 19:00:00 13,7 11,5 - - 21 11 - - SSW 1007,2 10 0,0
29.10.2020 18:00:00 13,6 11,6 - - 24 13 - - SW 1007,0 10 0,0
29.10.2020 17:00:00 13,7 11,6 - - 22 12 - - SW 1006,7 10 0,0
29.10.2020 16:00:00 13,7 11,8 - - 24 13 - - SW 1006,6 10 0,2
29.10.2020 15:00:00 12,5 11,7 - - 21 11 - - SSW 1006,5 10 0,0
29.10.2020 14:00:00 12,0 11,3 - - 26 14 - - SSW 1006,5 10 0,4
29.10.2020 13:00:00 11,1 10,5 - - 24 13 - - S 1007,3 8 0,6
29.10.2020 12:00:00 10,5 9,8 - - 22 12 - - S 1008,5 6 1,0
29.10.2020 11:00:00 9,8 9,2 - - 21 11 - - S 1009,4 10 0,6
29.10.2020 10:00:00 8,7 7,3 - - 16 9 - - S 1010,0 10 0,2
29.10.2020 09:00:00 8,7 7,0 9,2 12,0 18 10 - - SSW 1010,1 10 0,2
29.10.2020 08:00:00 8,2 5,9 - - 13 7 - - SSW 1010,2 10 0,0
29.10.2020 07:00:00 7,5 5,3 - - 18 10 - - SW 1009,5 10 0,0
29.10.2020 06:00:00 7,4 5,2 - - 8 4 - - SSW 1008,6 10 0,0
29.10.2020 05:00:00 6,5 4,2 - - 5 3 - - SSE 1008,4 10 0,0
29.10.2020 04:00:00 6,6 4,5 - - 8 4 - - SW 1007,3 10 0,0
29.10.2020 03:00:00 4,3 2,4 - - 9 5 - - S 1006,8 10 0,0
29.10.2020 02:00:00 6,6 4,3 - - 16 9 - - SW 1005,7 30 0,0
29.10.2020 01:00:00 7,0 4,5 - - 22 12 - - WSW 1004,7 10 0,0
29.10.2020 00:00:00 6,2 4,1 - - 21 11 - - WSW 1004,2 10 0,0
28.10.2020 23:00:00 6,1 3,9 - - 13 7 - - WSW 1003,3 10 0,0
28.10.2020 22:00:00 6,6 4,6 - - 18 10 - - SW 1002,4 10 0,0
28.10.2020 21:00:00 6,9 5,0 - - 15 8 - - SW 1001,7 10 0,0
28.10.2020 20:00:00 7,8 5,2 - - 15 8 - - SW 1000,9 10 0,0
28.10.2020 19:00:00 8,3 5,7 - - 16 9 - - SW 999,9 10 0,0
28.10.2020 18:00:00 8,4 5,9 - - 18 10 - - SW 999,1 10 0,0
28.10.2020 17:00:00 8,8 6,0 - - 16 9 - - SW 998,2 40 0,0
28.10.2020 16:00:00 10,4 6,6 - - 21 11 - - SW 998,2 10 0,0
28.10.2020 15:00:00 10,7 6,4 - - 26 14 46 25 SW 998,0 10 0,0
28.10.2020 14:00:00 11,3 6,6 - - 31 17 - - SW 998,1 10 0,0
28.10.2020 13:00:00 11,9 6,9 - - 31 17 50 27 SW 998,4 10 0,0
28.10.2020 12:00:00 11,0 6,4 - - 28 15 46 25 SW 998,6 10 0,0
28.10.2020 11:00:00 11,0 6,8 - - 29 16 46 25 SW 998,7 10 0,0
28.10.2020 10:00:00 9,9 6,7 - - 28 15 - - SW 998,5 10 0,0
28.10.2020 09:00:00 7,9 6,0 9,5 12,2 21 11 - - SSW 998,3 10 0,0
28.10.2020 08:00:00 7,3 5,6 - - 21 11 - - SSW 997,9 10 0,0
28.10.2020 07:00:00 5,9 4,4 - - 18 10 - - SSW 997,4 10 0,0
28.10.2020 06:00:00 6,2 4,6 - - 26 14 - - SSW 996,8 10 0,0
28.10.2020 05:00:00 6,3 4,7 - - 21 11 - - SSW 996,9 10 0,0
28.10.2020 04:00:00 6,6 5,0 - - 21 11 - - SSW 996,8 10 0,0
28.10.2020 03:00:00 6,5 5,1 - - 24 13 - - SSW 996,4 10 0,0
28.10.2020 02:00:00 6,1 4,7 - - 16 9 - - SSW 996,8 10 0,0
28.10.2020 01:00:00 6,2 4,7 - - 15 8 - - SSW 996,5 24 0,0
28.10.2020 00:00:00 7,0 4,7 - - 16 9 - - SSW 996,6 10 0,0
27.10.2020 23:00:00 7,3 5,1 - - 18 10 - - SSW 996,0 10 0,0
27.10.2020 22:00:00 7,8 5,1 - - 18 10 - - SW 995,4 10 0,0
27.10.2020 21:00:00 8,2 5,3 - - 22 12 - - SW 994,6 30 0,0
27.10.2020 20:00:00 8,8 5,7 - - 24 13 - - WSW 993,7 10 0,0
27.10.2020 19:00:00 9,5 7,0 - - 18 10 - - WSW 992,8 10 0,0
27.10.2020 18:00:00 10,8 7,5 - - 26 14 - - W 991,8 10 0,0
27.10.2020 17:00:00 11,4 9,9 - - 26 14 - - WSW 990,6 40 0,0
27.10.2020 16:00:00 11,5 11,1 - - 26 14 - - S 989,5 10 0,4
27.10.2020 15:00:00 10,9 10,5 - - 24 13 - - S 990,1 4,0 0,6
27.10.2020 14:00:00 10,2 9,8 - - 26 14 - - S 991,2 4,0 0,4
27.10.2020 13:00:00 9,8 9,3 - - 22 12 - - S 992,7 5 0,2
27.10.2020 12:00:00 9,5 8,9 - - 21 11 - - S 994,2 10 0,4
27.10.2020 11:00:00 9,2 8,2 - - 21 11 - - S 995,9 10 0,0
27.10.2020 10:00:00 8,5 7,6 - - 16 9 - - S 996,6 10 0,2
27.10.2020 09:00:00 7,4 6,8 9,7 12,5 15 8 - - S 996,9 10 0,2
27.10.2020 08:00:00 5,5 5,3 - - 8 4 - - SSE 997,6 10 0,0
27.10.2020 07:00:00 4,6 4,2 - - 8 4 - - S 997,8 10 0,0
27.10.2020 06:00:00 4,5 4,1 - - 11 6 - - S 997,8 25 0,0
27.10.2020 05:00:00 4,4 3,7 - - 11 6 - - SSW 998,1 10 0,0
27.10.2020 04:00:00 5,0 4,3 - - 11 6 - - SSW 997,9 25 0,0
27.10.2020 03:00:00 5,5 4,5 - - 13 7 - - SW 998,1 10 0,0
27.10.2020 02:00:00 5,5 4,8 - - 15 8 - - SW 998,3 25 0,0
27.10.2020 01:00:00 3,9 3,2 - - 13 7 - - SW 998,1 10 0,0
27.10.2020 00:00:00 6,5 5,0 - - 15 8 - - WSW 998,1 10 0,0
26.10.2020 23:00:00 7,8 5,7 - - 21 11 - - WSW 998,0 30 0,0
26.10.2020 22:00:00 8,1 6,0 - - 13 7 - - SW 997,8 10 0,0
26.10.2020 21:00:00 8,0 6,2 - - 16 9 - - SSW 997,4 10 0,0
26.10.2020 20:00:00 7,8 5,7 - - 15 8 - - SW 997,0 10 0,0
26.10.2020 19:00:00 8,0 6,1 - - 16 9 - - SW 996,5 10 0,0
26.10.2020 18:00:00 8,3 6,4 - - 18 10 - - WSW 996,1 10 0,0
26.10.2020 17:00:00 8,7 6,3 - - 16 9 - - WSW 995,2 10 0,2
26.10.2020 16:00:00 10,8 6,9 - - 24 13 - - WNW 995,3 10 0,0
26.10.2020 15:00:00 11,5 8,5 - - 16 9 - - W 994,4 10 0,0
26.10.2020 14:00:00 10,9 9,0 - - 18 10 55 30 WNW 994,1 30 2,4
26.10.2020 13:00:00 13,0 9,0 - - 28 15 - - WSW 993,4 10 0,0
26.10.2020 12:00:00 11,3 8,9 - - 26 14 - - WSW 993,3 10 0,2
26.10.2020 11:00:00 10,2 7,9 - - 26 14 - - SW 993,2 18 0,0
26.10.2020 10:00:00 9,4 7,6 - - 16 9 - - SSW 993,1 10 0,2
26.10.2020 09:00:00 8,1 6,9 10,2 12,7 24 13 - - SSW 993,0 10 0,0
26.10.2020 08:00:00 6,0 5,0 - - 18 10 - - SSW 993,1 10 0,0
26.10.2020 07:00:00 5,0 4,4 - - 16 9 - - S 993,0 10 0,0
26.10.2020 06:00:00 4,8 4,3 - - 16 9 - - S 992,7 10 0,0
26.10.2020 05:00:00 5,0 4,5 - - 16 9 - - SSW 992,7 30 0,0
26.10.2020 04:00:00 5,2 4,7 - - 18 10 - - SSW 992,9 10 0,0
26.10.2020 03:00:00 5,5 4,9 - - 16 9 - - S 992,9 10 0,0
26.10.2020 02:00:00 5,5 4,8 - - 16 9 - - SSW 993,4 10 0,0
26.10.2020 01:00:00 6,0 5,3 - - 16 9 - - S 993,8 10 0,0
26.10.2020 00:00:00 6,2 5,6 - - 16 9 - - S 993,9 10 0,0
25.10.2020 23:00:00 6,7 5,7 - - 13 7 - - S 993,9 35 0,0
25.10.2020 22:00:00 7,3 6,0 - - 16 9 - - SSW 994,2 40 0,0
25.10.2020 21:00:00 7,5 6,5 - - 16 9 - - S 994,5 10 0,0
25.10.2020 20:00:00 7,6 6,4 - - 15 8 - - S 994,2 10 0,0
25.10.2020 19:00:00 7,9 6,2 - - 16 9 - - SSW 994,1 10 0,0
25.10.2020 18:00:00 8,7 6,7 - - 21 11 - - SSW 993,9 10 0,2
25.10.2020 17:00:00 9,7 6,3 - - 18 10 - - SSW 993,8 10 0,0
25.10.2020 16:00:00 11,3 7,1 - - 18 10 - - S 993,5 10 0,0
25.10.2020 15:00:00 12,3 6,5 - - 22 12 - - SSW 993,4 40 0,0
25.10.2020 14:00:00 13,2 7,3 - - 28 15 46 25 SSW 993,2 10 0,0
25.10.2020 13:00:00 13,1 6,7 - - 29 16 - - SSW 993,4 40 0,0
25.10.2020 12:00:00 12,5 7,1 - - 31 17 - - SSW 993,5 10 0,0
25.10.2020 11:00:00 12,2 8,3 - - 31 17 46 25 SSW 993,9 10 0,0
25.10.2020 10:00:00 10,5 7,6 - - 29 16 - - SSW 993,9 10 0,0
25.10.2020 09:00:00 9,1 7,1 10,7 12,7 28 15 - - SSW 994,0 10 0,0
25.10.2020 08:00:00 7,4 6,3 - - 24 13 - - S 994,0 10 0,0
25.10.2020 07:00:00 7,1 6,3 - - 21 11 - - S 993,6 10 0,0
25.10.2020 06:00:00 6,7 5,9 - - 15 8 - - S 993,4 10 0,0
25.10.2020 05:00:00 7,2 6,0 - - 18 10 - - S 993,6 10 0,0
25.10.2020 04:00:00 6,9 5,9 - - 15 8 - - SSW 993,4 10 0,0

tt = temperature
td = dewpoint
tt -20cm = temperature -20cm
tt -100cm = temperature -100cm
ff = wind speed
fx = gusts
dd = wind direction
ppp = reduced air pressure
vv = visibility
rr = precipitation

Next stations